Wind_Speed
9 7 8 8 8 9 9 10 8 8 6 6 6 6 6 5 6 6 6 6 4 3 2 1 2 3 4 4 4 4 4 5 5 5 6 6 6 6 6 6 6 6 6 6 5 5 5 5 5 5 5 5 5 5 6 5 5 5 6 6 6 6 5 5 5 5 4 4 4 4 4 5 5 5 6 6 5 5 6 6 7 8 9 10 11
9 9 9 9 10 10 10 11 10 9 8 7 7 7 6 5 5 6 6 5 3 2 2 2 3 4 4 4 4 4 4 5 5 5 6 6 6 7 7 7 7 7 6 6 6 5 5 5 5 4 4 5 5 5 5 5 5 5 6 6 6 6 5 5 5 5 5 5 4 4 5 6 5 5 5 5 6 6 7 7 8 9 10 11 12
10 10 10 10 11 11 11 12 12 11 9 9 7 8 7 5 5 5 4 3 2 2 3 3 4 4 5 5 5 4 4 5 5 5 6 6 6 7 7 8 8 7 7 6 6 6 6 6 5 4 4 5 5 6 5 4 4 4 5 6 6 5 5 5 4 5 5 5 5 4 4 5 5 5 5 6 6 7 7 8 9 10 11 12 13
11 11 12 12 12 12 12 12 12 11 10 9 8 7 6 6 4 4 3 2 1 3 4 5 4 5 5 5 5 4 4 4 5 5 5 6 6 7 8 8 8 8 7 7 6 6 6 6 5 4 4 5 6 7 6 5 4 4 5 5 6 5 5 5 4 5 5 5 4 4 5 5 5 6 6 6 7 8 9 9 10 11 12 12 13
13 13 13 13 13 12 12 12 11 11 10 9 7 7 6 5 4 4 2 1 2 3 5 6 5 5 5 6 5 5 4 4 5 5 5 5 6 7 8 9 9 8 8 8 7 7 7 6 5 5 5 5 7 8 8 7 6 5 5 5 6 6 5 5 5 5 6 6 6 5 6 6 6 7 7 8 8 9 10 11 12 13 14 14 15
14 15 15 15 14 13 12 12 11 11 10 8 7 7 6 5 4 3 2 0 2 4 5 6 6 6 6 6 5 5 5 4 5 5 6 5 6 6 7 9 9 9 8 8 8 8 7 6 6 5 5 6 7 9 9 8 7 6 6 6 7 6 6 6 7 7 7 8 7 7 7 7 8 9 9 10 10 11 12 13 14 15 15 15 15
14 16 17 18 15 13 13 11 11 11 9 7 7 7 6 6 4 3 2 1 2 4 6 7 7 7 6 6 6 5 5 5 5 5 5 6 6 6 7 8 9 9 8 8 9 9 8 7 6 6 5 6 7 9 9 9 8 7 7 7 8 8 7 7 8 9 9 10 9 8 8 9 10 11 12 13 13 14 14 15 15 15 16 15 15
15 15 16 16 14 13 13 12 11 11 10 9 8 7 7 6 5 3 2 1 2 3 5 7 7 7 7 6 6 6 5 5 5 5 5 5 6 7 8 8 9 9 8 8 9 10 9 8 7 6 6 7 7 8 9 9 9 9 9 9 9 9 9 8 9 10 11 11 10 9 9 10 11 12 13 15 16 16 16 16 16 16 16 17 17
14 14 14 14 14 14 13 13 13 13 13 14 12 10 8 7 6 4 2 2 2 3 4 6 7 7 7 7 6 6 6 6 5 5 5 5 6 7 8 9 9 9 8 8 9 10 10 10 9 8 7 7 8 8 9 9 10 10 10 10 10 10 10 10 10 11 11 12 11 10 10 11 12 13 14 16 17 18 18 18 17 18 18 19 20
13 13 13 15 15 15 15 16 16 16 18 18 16 13 11 9 8 6 3 2 2 2 3 4 6 7 7 6 6 6 6 6 6 5 5 6 6 7 8 9 9 9 8 8 9 10 11 11 11 10 10 10 10 10 10 11 11 11 11 11 11 11 12 11 11 11 13 12 10 10 11 12 13 14 14 16 17 18 18 18 18 19 19 20 21
11 12 13 15 15 16 17 18 18 18 18 18 16 13 12 11 10 7 5 3 2 1 2 3 4 5 6 6 6 6 6 6 5 5 5 5 6 6 7 8 9 9 9 9 10 11 12 13 14 13 13 13 12 12 12 12 12 12 12 11 12 13 13 13 13 14 14 11 9 11 12 12 13 14 14 16 17 17 18 18 19 19 20 21 21
10 12 13 15 16 17 18 19 19 18 17 16 14 12 12 12 11 8 6 4 3 1 1 2 2 2 4 4 4 4 4 4 4 4 3 4 5 6 7 8 10 10 10 10 11 12 13 14 15 15 15 15 14 14 13 13 13 13 13 12 13 14 15 14 14 15 13 10 10 12 12 13 13 14 15 16 17 18 18 19 20 20 21 21 21
10 12 14 15 17 18 19 20 21 19 17 15 13 12 12 12 11 9 6 5 3 2 0 2 2 1 2 2 2 2 2 1 1 2 3 4 5 6 7 8 10 11 11 11 12 12 14 15 16 16 17 16 16 15 14 14 13 13 14 13 14 15 15 16 14 13 13 12 12 12 13 13 13 14 16 17 18 18 19 20 21 21 21 21 21
11 13 15 16 18 19 20 20 21 20 17 16 15 13 12 12 12 10 7 6 4 3 1 1 2 2 2 2 2 1 1 0 1 1 2 4 5 5 7 8 10 11 12 12 13 13 14 15 15 16 17 18 18 17 16 15 14 14 14 14 14 15 16 16 14 12 12 12 12 13 14 13 13 14 16 17 18 19 20 21 22 22 21 21 20
12 13 15 17 18 20 21 21 21 20 18 17 16 14 13 12 12 11 9 7 6 4 2 0 2 2 2 2 2 1 1 0 1 1 2 3 4 5 6 8 9 11 12 13 13 13 14 14 15 16 18 18 19 18 17 15 15 15 14 14 14 16 16 14 12 13 13 13 14 14 14 14 14 15 17 18 19 19 20 21 21 21 21 20 20
13 13 15 17 18 20 21 21 22 21 18 17 17 16 14 13 13 12 10 8 7 6 4 1 2 3 3 3 3 2 2 1 1 1 2 2 3 4 6 7 9 11 12 13 13 13 14 14 15 16 18 19 19 18 17 16 15 16 15 15 15 15 15 13 13 14 14 14 14 14 15 15 15 16 18 19 19 20 21 21 21 21 20 19 19
13 13 14 16 17 19 21 20 21 20 18 18 18 16 14 13 13 13 11 9 8 7 5 3 0 3 3 3 3 3 3 2 2 1 1 2 3 4 5 7 9 10 11 12 13 13 14 15 16 16 18 19 19 19 18 16 16 16 16 16 15 15 15 15 15 15 14 13 14 15 17 17 17 18 19 20 20 21 21 21 20 20 19 19 19
13 13 14 15 16 17 19 19 19 18 18 18 18 17 15 13 13 13 12 11 9 8 7 5 2 1 2 3 3 3 3 3 3 2 2 2 2 3 5 7 8 10 11 12 12 13 14 15 16 17 18 19 19 19 18 17 16 16 16 16 15 15 15 16 16 15 13 12 14 17 18 18 18 18 19 20 21 21 21 21 20 19 19 19 19
14 14 14 14 14 14 16 17 17 17 17 18 19 18 15 14 14 14 13 12 10 9 8 6 5 3 2 2 2 3 3 3 3 2 2 2 2 3 4 6 8 10 11 12 13 13 14 15 16 17 18 19 19 19 18 17 17 16 16 16 15 15 15 15 14 13 12 14 16 18 18 17 18 19 20 21 21 22 21 21 20 19 19 19 19
16 15 15 14 13 13 13 14 16 16 17 18 19 17 15 15 15 14 12 12 11 10 9 8 7 6 5 5 3 3 2 2 2 2 3 2 2 3 4 6 8 9 11 12 13 13 14 15 16 17 18 19 19 19 18 18 17 17 16 16 15 15 15 14 13 13 14 16 17 18 17 17 17 19 20 21 21 21 21 20 20 19 19 19 19
17 16 16 15 14 14 13 13 15 16 17 18 18 16 16 15 15 14 12 11 11 10 9 9 8 7 8 8 6 5 3 3 2 3 4 3 3 3 5 6 8 9 11 12 13 14 14 15 16 17 18 18 18 18 18 18 17 16 16 16 15 15 15 14 13 14 15 16 17 17 16 16 18 19 21 21 21 21 20 20 19 19 19 19 19
18 17 16 16 15 14 14 15 16 16 17 18 18 17 16 16 16 15 12 11 10 10 10 10 9 9 9 9 8 7 5 3 3 4 5 4 4 4 5 7 8 10 11 12 13 14 14 15 16 17 18 18 18 18 18 18 17 15 15 15 16 16 15 14 13 13 16 17 17 17 16 16 18 19 20 21 21 20 20 19 19 19 18 18 18
20 18 17 17 16 15 15 17 18 19 19 19 19 18 18 17 17 16 13 12 11 11 11 11 10 10 10 10 10 8 6 4 5 5 5 5 5 5 6 7 9 10 11 12 13 14 14 15 16 17 18 18 18 18 18 18 16 14 14 15 15 16 15 13 12 13 16 16 17 17 16 17 18 19 20 21 20 20 19 18 18 18 18 18 18
21 19 18 17 15 15 15 16 19 20 21 21 21 20 19 18 18 17 15 14 12 11 12 11 11 11 11 11 10 9 7 5 5 6 6 6 6 6 7 7 9 10 11 12 13 14 14 15 15 16 17 18 17 17 18 18 16 14 14 14 15 15 14 13 13 15 17 16 17 17 16 17 18 19 20 20 20 19 18 18 18 18 18 18 18
22 19 18 16 12 12 13 15 17 19 20 21 22 22 20 19 18 18 17 15 13 12 12 12 12 12 12 11 10 8 6 5 5 6 7 7 7 7 7 8 9 10 11 12 13 14 15 15 15 16 17 17 17 17 18 17 16 15 14 14 15 15 13 13 15 16 18 18 17 17 16 17 18 19 20 20 19 18 17 17 17 18 18 18 18
20 19 17 15 11 9 9 11 13 16 18 19 22 22 20 19 18 18 18 16 14 13 13 14 13 13 12 11 9 7 5 5 5 6 7 7 8 8 8 9 9 10 12 13 14 15 15 15 15 15 15 16 17 17 18 17 15 15 14 14 14 14 12 13 16 17 20 19 16 16 16 16 18 19 19 19 18 17 17 17 17 18 18 18 19
20 20 17 15 12 9 6 7 9 12 15 18 19 21 20 18 17 18 18 16 14 13 13 14 13 13 12 11 8 6 4 4 5 6 7 8 9 10 10 10 10 11 12 13 14 14 15 15 15 15 15 16 17 17 18 16 15 14 15 15 15 15 12 12 17 19 20 18 16 15 15 17 18 19 19 18 17 17 17 17 18 18 18 19 19
22 21 18 17 15 10 8 8 8 9 12 15 17 19 19 18 17 17 18 16 14 14 13 13 14 13 12 10 8 6 5 5 5 7 8 9 11 11 11 11 11 11 12 13 14 14 15 15 14 14 14 15 17 17 17 16 14 16 16 16 16 16 12 13 18 20 18 17 16 15 16 17 18 19 19 18 17 17 17 18 18 18 18 19 20
21 21 21 20 18 13 12 12 10 9 10 12 16 18 18 19 18 17 17 16 14 14 13 13 13 13 11 10 8 6 5 5 6 8 9 11 12 13 13 12 12 12 13 14 14 14 14 14 13 14 14 16 17 17 16 15 15 17 17 16 17 15 13 16 20 19 17 16 15 15 17 18 19 20 19 18 17 16 17 18 18 19 19 19 20
23 24 24 24 22 18 17 15 14 12 11 11 14 18 19 19 19 18 17 15 14 14 13 13 13 13 12 11 9 7 6 6 7 9 11 12 13 13 14 13 13 13 14 15 15 14 13 13 12 13 14 15 16 16 16 15 15 16 16 17 18 15 16 18 18 18 17 16 17 17 18 19 21 20 19 17 16 16 17 18 19 19 19 20 20
27 27 27 26 25 22 20 18 16 14 13 13 15 17 19 19 19 18 17 16 14 14 14 13 14 14 13 12 10 8 7 7 8 10 11 12 13 13 14 13 13 13 14 15 15 14 13 12 11 12 13 14 15 16 16 16 16 17 17 16 17 17 19 18 16 17 18 17 18 19 19 21 21 20 18 17 17 17 18 19 19 20 20 20 21
28 29 29 28 27 24 23 21 17 16 15 13 15 17 18 18 18 18 18 17 15 15 15 14 15 16 15 13 12 10 8 8 9 10 11 11 12 13 14 14 14 14 15 15 15 14 13 11 10 11 13 13 14 15 16 17 17 17 16 15 16 19 21 18 13 15 18 18 19 19 20 21 21 20 18 17 17 17 18 19 20 20 20 21 21
29 31 32 31 30 27 25 23 19 17 17 15 14 17 20 19 17 18 19 17 16 15 15 15 16 17 16 14 12 11 9 8 9 10 11 11 12 13 14 15 15 15 16 16 16 15 12 10 10 11 12 12 14 15 17 18 18 17 16 16 18 20 20 18 15 15 18 20 21 20 20 21 21 19 17 17 17 17 18 19 20 20 21 21 22
33 35 35 33 31 29 26 25 22 20 20 18 16 16 21 22 19 18 19 18 16 16 16 17 17 18 17 15 13 12 10 9 9 10 11 12 13 15 16 17 17 17 17 18 17 15 12 10 11 11 12 13 14 15 17 17 18 18 18 18 20 19 18 18 18 19 19 19 20 21 20 20 20 19 17 17 17 18 18 19 20 21 22 22 22
37 37 36 34 31 29 28 27 26 24 22 19 17 17 20 24 23 20 19 19 17 16 17 18 18 18 17 16 14 13 11 10 10 11 12 13 15 16 17 18 18 19 19 19 18 15 11 12 14 13 13 15 15 16 17 17 18 19 20 20 20 19 19 19 20 21 21 19 19 20 20 20 19 18 17 17 17 18 18 19 21 22 23 23 23
41 41 37 34 32 30 29 29 29 26 23 20 17 17 20 24 25 22 20 20 18 18 18 19 19 19 18 17 15 14 12 11 11 12 13 15 17 18 19 19 20 20 20 21 19 14 12 14 15 14 14 15 15 16 18 17 18 18 19 20 20 21 21 20 20 21 21 19 18 19 19 19 19 18 18 17 18 18 19 20 21 22 24 24 24
40 43 41 36 33 32 31 31 31 28 24 21 18 17 19 22 25 23 22 20 19 19 20 20 20 19 19 17 16 15 13 12 12 13 13 15 17 19 20 20 21 21 21 23 19 13 13 15 15 15 15 15 16 17 17 17 18 18 18 19 20 21 21 20 19 20 20 19 18 18 18 18 18 18 18 18 19 19 19 20 21 23 24 24 24
39 40 43 41 37 36 35 33 34 32 27 24 21 20 20 21 24 23 22 22 20 20 20 21 21 20 19 17 16 16 14 13 13 14 14 14 16 19 20 21 22 22 22 24 18 11 13 15 15 15 15 16 17 17 17 17 17 17 18 19 20 21 21 19 18 19 19 19 19 19 19 18 18 17 18 19 20 20 20 20 22 24 25 25 25
42 36 40 43 41 38 38 38 38 35 30 28 25 24 24 23 24 24 23 23 21 21 21 22 21 20 19 18 17 16 16 15 14 14 14 15 16 19 21 22 21 21 22 23 18 12 14 16 16 16 16 17 17 17 17 17 17 17 18 19 20 21 20 17 18 19 19 19 20 20 20 19 18 17 18 19 20 21 20 21 22 24 25 26 26
47 41 39 41 42 40 40 40 41 39 33 30 28 26 26 25 25 25 24 24 23 22 23 22 21 21 19 18 17 17 17 16 16 15 15 16 17 19 22 22 21 20 21 23 20 15 15 17 17 16 16 17 17 18 18 18 17 17 18 19 20 20 19 17 17 19 19 20 20 20 20 19 19 19 19 19 21 21 21 21 23 25 26 26 27
53 48 43 41 42 41 41 42 42 40 35 32 30 27 27 26 25 25 25 24 24 24 24 23 22 21 20 18 18 18 18 18 17 17 17 17 18 19 21 22 21 20 20 22 22 17 15 17 17 17 17 17 18 18 18 18 18 18 18 19 20 20 18 16 17 18 19 20 20 20 20 20 20 20 21 21 21 21 21 22 24 26 27 28 28
56 53 48 43 43 43 43 44 43 41 36 34 31 27 26 26 26 25 26 25 25 25 25 24 22 20 20 19 18 19 18 18 18 18 18 18 19 19 21 22 21 21 21 22 22 19 16 17 18 17 17 17 18 18 17 18 18 18 18 19 20 20 18 16 17 18 18 19 20 20 20 20 21 21 22 22 22 21 22 22 24 26 27 29 29
56 55 52 48 48 48 45 45 44 41 37 35 32 28 26 26 27 27 26 27 26 26 26 24 22 20 20 19 19 19 19 19 19 19 18 18 19 19 20 21 21 21 21 22 23 22 18 17 19 18 17 17 18 18 17 17 18 18 18 19 20 20 18 17 17 18 19 20 20 20 20 20 22 22 23 23 23 22 23 24 25 26 28 29 30
57 56 55 53 52 50 48 47 45 42 37 34 33 30 28 27 27 27 27 28 28 27 26 24 22 21 21 20 19 19 20 20 20 20 19 18 19 20 20 21 21 21 21 23 24 24 20 18 19 18 17 18 18 18 18 17 17 17 18 18 20 20 18 17 17 18 19 20 20 20 20 21 21 23 23 23 23 23 23 25 27 28 29 30 31
53 52 53 54 53 50 51 49 45 42 37 33 33 32 29 27 27 28 27 29 30 28 26 24 23 22 22 21 20 20 20 20 20 20 19 18 19 20 21 21 22 22 22 23 24 24 22 19 18 19 19 19 18 19 19 18 17 17 17 18 19 18 18 18 18 18 19 20 20 19 20 21 21 23 23 23 23 24 24 25 27 30 31 31 32
50 49 50 52 50 49 52 52 47 43 38 33 33 32 30 28 28 29 29 31 32 30 28 26 24 23 23 22 21 20 20 20 20 20 19 18 18 20 22 22 22 22 22 23 24 24 23 22 20 20 21 20 19 20 19 18 17 17 16 17 18 17 17 18 19 19 19 20 20 19 20 21 21 22 23 23 23 24 26 26 27 30 32 32 33
53 51 51 52 51 49 53 58 55 45 38 35 34 33 31 29 29 31 32 34 35 33 30 28 25 23 23 23 22 21 20 20 20 20 19 18 19 21 22 23 23 22 22 23 24 24 24 24 23 22 21 19 19 19 19 18 18 17 17 17 17 17 17 18 19 20 20 20 20 19 19 20 21 21 22 22 22 23 26 27 27 29 32 34 34
53 53 53 52 51 49 50 55 55 46 40 37 35 34 32 30 31 33 35 35 36 35 32 28 25 24 24 23 23 22 21 20 20 21 20 20 20 21 23 23 23 23 22 22 23 24 24 24 25 24 21 19 19 19 18 18 18 18 18 17 17 17 17 18 19 20 21 20 19 19 18 19 21 23 23 22 22 22 25 28 28 28 30 34 36
48 49 52 51 48 47 48 51 52 47 42 38 35 35 34 32 32 34 36 36 36 36 33 29 26 24 24 24 23 23 22 21 21 22 22 21 21 22 23 24 24 23 22 21 22 23 23 23 24 24 23 22 21 20 19 19 20 20 19 17 17 17 17 17 19 20 21 20 19 18 18 19 20 22 24 24 23 22 24 28 31 29 29 31 35
50 47 48 48 47 46 49 54 55 47 41 38 36 36 36 33 32 33 35 35 35 35 34 31 27 25 25 25 25 24 23 23 23 23 23 22 21 21 23 24 24 23 21 21 22 22 22 23 23 23 23 23 23 22 22 22 22 21 20 18 17 16 16 17 18 20 21 20 19 17 17 19 20 22 23 25 26 24 24 27 31 33 31 31 34
55 52 50 49 50 48 48 52 55 49 40 38 38 37 37 35 33 34 35 35 35 35 34 32 29 27 26 26 26 26 24 23 24 23 23 22 21 21 23 24 24 23 21 20 21 22 22 22 23 22 22 22 23 23 22 22 23 22 20 18 17 16 16 17 18 20 20 20 20 18 17 17 19 20 20 23 28 28 27 27 30 34 34 33 34
Wind_Direction
241 243 251 259 266 269 272 274 278 277 279 280 286 292 302 326 342 344 341 354 13 48 81 114 116 106 92 78 64 51 50 49 44 40 34 28 22 14 8 9 18 28 36 43 44 42 38 37 33 25 17 4 358 357 359 2 6 2 359 4 1 358 358 357 346 343 341 337 332 323 319 312 305 304 305 307 310 311 314 318 322 325 325 325 323
238 242 251 258 263 268 271 274 277 276 278 279 286 289 297 314 331 338 334 347 10 56 95 113 116 108 98 86 68 51 46 45 43 36 31 25 18 11 3 5 11 21 26 34 38 37 36 36 32 20 7 353 345 340 345 350 352 349 349 353 350 347 349 349 342 336 329 327 321 313 312 310 306 303 305 305 307 309 313 318 323 326 325 324 322
235 240 249 257 263 269 271 274 275 274 274 276 284 286 291 302 317 331 330 341 17 78 105 113 115 111 102 94 78 57 45 37 38 31 27 21 15 9 360 3 7 15 19 24 29 32 34 33 28 13 357 342 334 329 332 338 340 340 340 341 338 336 339 339 333 327 320 316 309 305 303 300 303 304 309 310 311 314 317 320 322 324 323 321 320
234 239 247 254 263 269 270 274 274 272 273 274 279 282 287 290 305 320 324 343 56 104 113 112 114 110 103 97 87 70 49 33 30 24 21 17 12 7 359 0 6 11 11 16 22 26 28 29 22 7 352 336 328 325 327 332 333 331 328 328 325 326 328 327 321 315 307 297 291 292 287 286 292 297 303 307 311 315 317 318 318 319 319 319 320
241 243 249 253 261 266 269 271 272 271 271 273 276 279 282 282 292 306 317 353 112 116 118 114 112 107 102 97 90 80 62 38 27 19 17 13 11 7 360 359 3 8 7 9 13 19 21 20 16 3 348 333 327 324 325 329 330 326 322 319 317 319 319 319 313 306 297 289 286 286 287 290 293 296 301 305 311 313 315 315 316 318 319 321 321
251 249 253 258 261 261 266 268 270 272 270 272 276 277 277 277 281 293 303 197 128 125 123 117 112 107 101 96 91 83 71 50 35 21 15 10 9 8 2 1 2 5 5 4 4 8 10 11 8 359 346 332 327 324 325 328 329 328 322 318 316 317 317 319 315 309 301 292 291 294 294 295 297 301 306 309 313 314 315 315 316 319 318 317 316
254 254 256 259 258 255 261 265 267 270 270 275 280 279 276 271 270 277 277 206 131 127 121 117 112 106 100 94 92 83 74 61 48 31 19 10 8 9 7 4 4 6 4 2 359 357 356 360 359 353 343 331 327 325 327 328 330 332 328 323 319 319 321 322 318 315 306 297 298 297 293 296 301 306 309 312 314 315 314 315 316 316 312 310 311
259 260 257 253 250 249 258 262 263 266 273 285 286 283 277 268 262 261 250 202 139 119 113 113 108 105 100 94 91 84 76 67 57 44 28 17 14 12 12 9 8 9 6 1 356 352 348 349 349 346 337 329 328 328 330 329 332 336 335 330 327 326 325 324 322 316 307 305 304 299 296 300 306 308 311 314 316 316 316 316 316 314 313 316 320
262 260 254 249 247 249 256 259 259 263 274 284 285 282 277 267 258 253 233 194 150 113 102 103 104 103 101 95 88 84 78 70 65 57 41 29 24 18 16 12 12 12 8 3 355 349 344 342 341 339 334 329 329 332 333 332 335 340 341 337 334 331 326 327 324 316 311 310 306 303 307 309 310 312 315 317 318 319 319 320 319 319 321 324 326
259 257 253 252 252 254 255 257 259 264 272 280 281 276 273 266 255 248 240 212 173 121 100 94 99 101 98 95 88 83 78 73 67 63 52 39 31 20 13 6 4 4 2 358 352 345 340 339 338 337 334 333 333 335 335 336 338 342 344 340 335 329 327 329 324 318 318 314 308 311 315 314 315 316 318 319 320 320 320 321 320 322 324 325 326
254 254 255 256 258 260 259 261 262 266 273 278 278 271 269 264 255 249 249 246 230 164 101 89 91 98 100 97 90 84 78 73 67 61 51 37 27 14 2 354 349 347 349 347 345 341 338 337 337 338 335 334 335 336 337 337 340 341 343 339 333 328 328 330 326 324 322 315 313 318 318 317 317 317 320 320 319 318 318 318 319 321 323 325 326
248 254 257 261 263 265 266 267 267 270 274 278 276 267 263 257 253 250 251 256 257 261 79 70 75 94 104 104 99 93 80 71 61 48 32 19 10 2 350 343 338 336 338 338 338 337 336 337 337 337 335 334 334 336 337 339 342 341 341 338 333 330 330 330 328 328 326 318 316 321 320 318 318 320 321 320 320 319 320 321 322 323 325 327 329
247 254 259 264 266 268 269 271 272 273 273 272 268 259 253 250 249 246 245 248 256 269 33 67 67 78 100 116 118 114 98 74 42 12 359 356 351 348 342 334 331 330 331 332 335 336 336 336 337 336 333 332 332 335 338 341 342 342 341 338 335 331 330 328 325 327 323 316 316 323 321 318 320 322 323 322 322 322 324 325 324 325 328 331 332
251 256 260 264 266 268 269 270 271 271 269 266 261 255 249 248 248 244 241 241 247 259 268 80 77 75 87 103 117 136 162 180 300 326 331 338 339 336 332 327 325 324 325 329 333 336 336 336 336 334 332 330 331 335 338 342 341 341 342 339 337 332 330 326 322 324 319 314 319 324 320 319 322 323 324 324 324 326 326 326 326 328 331 333 333
253 257 260 263 265 266 268 268 267 266 266 261 256 253 248 246 247 245 241 238 244 249 254 106 75 67 74 81 89 88 122 129 305 322 326 329 333 329 325 322 320 320 321 325 331 334 335 335 335 333 331 330 331 333 337 341 340 340 341 339 336 332 331 326 323 325 317 313 317 320 319 319 323 324 325 326 327 327 327 328 328 331 333 333 334
254 256 260 263 266 265 266 264 262 262 260 255 250 249 246 243 243 243 241 235 240 242 247 253 71 62 61 64 75 75 77 78 46 4 335 337 334 327 322 318 317 317 319 323 329 332 333 333 333 332 331 330 331 332 336 340 340 339 339 338 334 331 328 321 322 321 314 314 316 318 319 319 322 324 326 328 328 328 328 330 331 332 333 333 334
254 257 261 264 267 266 263 258 254 254 252 247 244 246 242 241 242 242 243 237 238 239 241 246 47 52 55 55 66 73 76 80 74 67 21 4 348 332 319 314 314 314 318 322 327 330 331 331 332 331 331 330 330 331 335 339 339 337 336 336 332 328 323 318 320 317 314 317 317 319 319 319 320 322 325 328 328 329 330 332 333 334 334 334 335
252 258 263 263 267 265 260 254 244 241 243 243 243 244 241 242 244 244 246 244 242 242 242 246 254 6 32 43 53 64 71 78 79 79 60 35 2 334 319 311 311 313 317 321 326 329 328 329 331 331 331 330 329 331 334 336 336 335 334 333 329 326 323 322 322 318 316 316 316 318 318 318 318 322 326 327 329 330 333 334 335 335 335 335 336
249 257 262 263 265 260 254 248 240 235 237 242 243 242 242 243 246 247 248 249 248 246 246 250 253 273 308 336 16 40 57 63 70 75 68 49 10 333 316 310 310 312 315 319 323 325 325 327 329 330 330 329 329 331 333 334 334 333 331 328 327 325 325 324 324 322 316 314 317 317 315 316 318 323 327 329 330 332 333 334 335 335 335 335 336
248 254 259 261 261 255 244 237 236 237 237 240 243 243 245 246 248 249 250 252 252 252 252 256 260 265 277 289 309 340 11 30 48 61 55 40 7 331 315 311 309 310 313 316 319 321 323 325 327 329 328 329 329 331 332 334 334 332 329 327 326 325 325 324 326 322 315 317 319 315 314 316 320 324 329 331 331 332 333 334 334 335 334 334 335
246 251 256 256 256 252 240 234 236 239 238 240 244 246 247 248 249 250 253 257 256 258 261 263 266 268 273 281 291 308 329 357 22 34 33 22 356 329 316 312 308 308 310 313 315 317 321 324 327 328 327 328 330 331 332 333 332 330 329 328 327 325 326 326 324 318 316 320 318 314 316 319 322 326 329 330 331 332 333 333 333 333 332 333 335
244 249 255 256 256 255 245 237 238 241 241 241 245 247 248 249 250 251 255 260 262 264 267 269 270 272 275 280 288 298 311 336 12 21 19 9 351 332 317 310 305 305 307 309 312 314 318 323 326 327 326 328 330 332 333 332 330 330 331 329 327 327 328 325 320 318 321 321 315 313 317 320 324 327 328 329 330 331 332 332 331 330 331 333 334
243 248 251 254 255 257 253 244 242 246 247 246 246 246 249 250 251 252 255 259 263 268 271 274 273 275 277 280 284 288 301 330 8 16 12 2 350 336 318 308 304 302 304 306 308 312 316 321 324 325 325 328 331 333 333 330 329 331 333 329 327 326 327 326 321 324 327 320 314 315 317 321 324 326 328 329 330 331 331 330 329 328 330 332 334
239 247 250 252 251 252 255 253 249 250 252 252 248 246 249 251 252 251 253 257 262 268 275 279 277 277 276 276 279 281 295 328 5 12 7 358 348 336 321 310 304 301 302 303 305 310 315 319 323 324 324 328 332 334 332 329 329 331 332 328 327 327 328 329 326 327 327 320 316 317 319 322 323 325 327 328 329 330 330 328 326 327 329 332 333
235 244 252 255 253 248 252 254 252 252 253 253 248 243 246 250 254 253 254 257 262 269 279 283 280 277 275 272 272 275 295 328 359 9 5 357 348 337 325 315 306 302 302 302 306 309 313 317 321 323 324 327 331 335 333 329 328 328 329 328 328 331 330 331 330 326 324 321 318 318 319 320 322 325 327 328 330 330 328 326 326 328 329 331 332
233 240 248 253 250 241 243 251 252 253 251 251 247 241 242 247 253 257 258 259 262 269 278 282 279 276 274 270 268 271 295 332 357 6 5 358 349 340 330 320 311 305 303 303 307 309 311 314 319 322 323 326 329 336 336 331 328 325 327 327 328 332 327 329 330 321 320 321 318 317 317 319 323 326 327 328 330 329 327 326 326 328 329 330 331
227 235 241 242 235 226 233 252 255 255 250 246 244 239 237 242 251 258 258 258 261 266 273 277 277 275 272 267 267 276 300 330 352 359 358 354 349 342 332 323 315 309 305 305 306 308 310 312 316 319 322 325 328 337 338 330 327 324 326 327 328 330 323 327 328 319 319 321 317 316 316 321 324 326 328 330 330 329 327 326 327 328 328 328 330
221 228 233 233 228 232 247 257 260 261 256 246 239 235 233 238 249 257 256 255 259 264 270 274 274 271 268 266 268 280 301 322 339 344 345 346 345 340 333 324 318 312 307 305 306 307 308 309 314 316 321 326 330 338 336 328 329 328 328 327 328 328 324 331 329 322 322 321 317 316 318 322 324 327 330 331 330 327 326 326 327 326 326 327 329
221 223 226 230 229 245 261 259 260 263 264 255 242 235 235 242 252 258 255 252 257 263 267 271 271 267 264 265 269 279 297 316 325 330 332 336 338 337 333 328 321 316 309 305 305 304 304 306 311 316 323 328 332 336 333 329 330 329 327 324 326 326 325 333 329 322 323 321 317 315 317 322 325 328 330 329 327 325 325 326 326 325 325 326 328
217 217 222 229 232 248 261 258 260 263 265 265 256 247 244 249 257 260 254 251 255 260 264 267 265 262 262 263 267 276 292 309 316 320 324 327 331 333 333 330 325 317 310 306 304 303 302 304 311 319 324 330 333 334 332 327 322 323 324 321 324 325 326 332 329 320 321 321 318 317 319 324 326 327 327 327 325 323 325 325 325 325 324 325 327
216 216 222 229 235 248 256 258 260 262 266 267 266 259 251 254 260 259 253 250 253 257 259 261 261 258 258 262 267 276 289 302 312 316 320 323 326 331 332 331 327 318 311 306 302 301 300 304 314 321 323 329 333 332 329 324 320 321 322 319 324 329 328 330 326 320 322 322 319 319 322 325 325 325 325 324 323 323 324 324 324 324 324 324 326
221 222 227 232 238 248 256 259 258 260 268 269 267 261 252 254 260 257 250 248 251 255 257 256 257 256 256 261 267 277 287 296 307 314 317 321 325 330 333 332 328 320 313 306 302 299 300 307 316 319 321 327 330 329 328 326 324 321 319 318 326 331 329 326 322 323 325 322 319 320 322 323 323 323 323 322 321 322 322 323 323 323 323 323 324
225 227 230 235 241 250 257 257 255 261 269 272 273 263 253 252 258 256 249 247 248 252 255 253 254 255 257 261 267 275 284 292 303 311 313 316 322 327 331 332 328 322 314 307 302 299 303 313 313 314 321 325 327 329 329 328 326 323 320 318 322 328 328 322 317 322 326 322 320 321 321 319 320 321 320 319 318 319 320 321 322 322 321 321 322
228 228 230 236 242 248 253 255 258 263 267 271 275 268 256 251 254 256 251 247 247 249 253 252 253 254 257 261 267 273 278 287 297 305 308 310 316 321 324 327 325 321 314 307 304 303 309 311 304 309 317 319 323 325 325 326 325 322 319 316 318 324 326 319 313 317 323 321 319 319 317 315 317 318 317 315 315 317 318 320 321 321 320 320 319
231 227 228 232 237 243 247 253 259 263 264 267 271 272 261 251 250 255 253 249 247 249 252 251 252 253 257 261 265 270 273 281 292 298 303 306 310 315 320 323 323 319 313 308 306 309 314 307 302 311 317 314 316 318 319 321 321 317 315 317 319 323 322 318 314 315 320 321 317 314 313 313 315 316 314 312 313 316 317 319 321 320 319 318 318
232 227 227 228 234 241 246 251 256 257 258 259 267 274 267 253 248 251 254 250 248 249 250 250 251 253 256 260 263 267 272 277 287 294 300 304 307 312 317 321 321 316 312 308 309 314 312 304 306 314 315 313 313 313 315 317 318 315 314 317 321 321 318 316 315 316 318 320 316 312 311 313 314 313 312 311 312 314 316 318 319 320 319 317 317
233 228 226 229 235 241 245 249 252 252 252 253 261 272 271 257 247 249 253 250 249 250 250 249 250 254 256 259 263 266 271 277 284 291 297 302 306 312 316 320 319 315 310 306 309 316 307 302 308 311 310 312 313 311 313 315 315 313 313 317 319 318 313 311 313 316 318 321 317 313 311 312 312 311 310 310 311 313 315 317 318 318 317 316 318
232 228 226 228 233 238 243 246 247 249 252 253 259 268 272 261 248 249 253 251 249 248 248 248 249 253 256 259 264 267 271 277 283 289 295 301 307 313 316 318 317 313 309 306 308 314 306 303 306 306 307 311 312 310 311 313 312 309 312 316 316 312 308 308 312 317 322 324 320 317 315 312 309 308 308 309 311 312 314 316 317 318 317 317 318
231 230 226 226 229 233 239 243 246 249 253 256 259 267 273 265 251 251 255 252 250 247 245 245 247 252 257 261 264 267 272 276 281 287 293 301 308 313 314 316 316 312 309 308 309 309 305 304 303 301 305 309 310 310 311 312 309 308 311 313 312 308 306 308 313 320 327 328 324 320 317 313 308 306 305 307 310 310 312 315 316 317 318 318 318
234 233 231 230 229 231 237 242 246 249 251 256 260 267 273 267 255 251 252 251 251 247 242 242 245 251 257 261 264 266 270 274 279 286 293 301 308 312 313 314 313 310 309 309 306 304 304 303 300 301 306 310 310 310 312 312 308 307 309 310 310 308 308 309 315 324 329 328 324 320 316 313 309 306 305 307 308 309 311 315 316 317 319 319 319
239 237 234 234 230 229 236 241 245 249 250 253 258 264 266 263 256 249 245 246 250 247 240 238 242 249 256 259 262 264 268 273 279 287 294 301 307 310 311 311 311 309 309 308 304 302 303 301 297 301 306 308 308 308 310 310 306 305 307 309 310 309 308 310 318 325 328 327 324 319 316 313 309 307 307 307 307 308 311 315 318 320 321 320 319
240 238 235 237 236 233 235 238 244 249 251 252 254 258 259 257 255 250 245 243 248 248 240 236 239 246 252 256 259 261 266 272 279 287 294 301 306 309 310 309 309 309 310 309 305 301 301 299 296 299 303 304 305 306 307 306 304 304 307 308 308 308 309 313 321 324 324 326 323 319 315 311 308 307 307 307 306 308 311 314 317 320 321 320 318
236 236 235 237 239 238 237 238 242 246 252 254 253 255 256 255 253 250 247 244 246 247 240 236 238 243 249 253 256 260 265 272 278 286 292 299 304 307 308 308 307 308 310 309 306 302 300 297 296 298 301 303 303 304 303 302 302 305 307 309 309 311 312 315 322 322 321 323 322 318 314 310 309 308 307 307 308 310 312 314 317 320 321 319 318
234 234 235 236 237 240 241 240 241 245 250 253 253 256 256 255 253 248 247 246 247 246 239 236 238 242 247 251 254 258 265 272 277 284 290 296 301 304 306 305 305 306 308 308 305 303 300 299 298 298 299 301 301 302 301 300 303 306 309 310 310 313 314 315 321 322 319 321 320 317 313 311 310 307 307 307 308 310 312 315 318 320 321 319 317
233 233 234 237 238 241 242 240 240 243 246 249 252 256 257 257 252 246 246 246 246 243 235 234 237 241 246 249 253 258 264 270 276 281 287 292 297 301 302 302 302 302 304 306 306 304 302 302 302 300 300 301 301 301 300 301 303 305 308 309 310 313 313 315 320 320 319 320 318 314 311 311 310 307 306 307 308 309 312 315 318 319 320 319 317
231 233 234 236 236 239 242 241 241 242 242 245 249 252 255 256 252 246 245 244 242 238 230 229 235 238 244 249 252 258 262 269 275 279 284 289 293 297 299 299 299 299 302 306 308 307 305 306 308 305 303 304 304 301 300 301 303 304 306 309 311 314 313 314 318 318 319 318 315 311 309 309 309 306 305 305 307 309 311 314 317 318 318 318 318
234 234 235 236 235 238 242 241 238 237 238 241 244 248 249 252 251 244 242 242 240 235 230 229 234 238 243 248 252 256 262 267 273 278 281 285 291 294 296 297 297 297 300 306 309 308 305 306 306 303 299 298 300 298 297 299 303 305 308 309 311 314 314 315 317 318 317 316 313 309 307 308 307 304 302 303 305 307 309 311 314 316 317 318 318
236 234 234 235 235 238 241 238 233 230 233 237 239 244 245 247 249 243 240 241 238 235 233 232 235 238 243 247 251 256 261 266 271 276 279 284 288 291 293 294 294 295 299 306 309 306 303 303 303 300 297 296 297 296 297 302 305 305 307 309 310 312 314 316 317 316 315 314 312 309 307 307 306 303 301 301 302 305 306 308 311 314 316 317 317
234 233 233 236 236 238 240 236 232 229 229 233 235 239 241 243 246 242 238 238 237 235 235 235 235 237 242 247 251 255 260 266 271 275 278 282 285 287 291 292 292 293 297 305 307 305 304 304 302 300 300 301 301 299 301 307 307 304 304 307 309 309 311 315 316 315 313 312 310 309 308 306 304 302 302 303 304 305 305 307 309 312 314 315 315
235 234 233 236 234 236 239 235 231 227 225 229 232 235 239 241 243 241 236 235 236 235 234 234 236 238 243 247 251 255 259 265 271 274 278 280 281 283 288 290 290 291 296 303 305 306 307 305 302 299 299 302 302 299 301 306 306 303 303 305 307 307 310 314 316 314 312 310 309 308 306 304 303 301 303 305 305 305 305 306 308 311 313 314 314
234 233 231 235 235 234 238 235 227 222 221 225 229 232 236 239 240 239 234 232 234 234 233 233 236 240 244 248 251 254 259 264 269 273 277 279 279 281 285 287 288 290 294 299 302 305 306 305 302 300 298 298 298 296 300 305 303 300 300 302 305 308 311 313 314 313 311 309 310 308 303 299 294 296 303 305 304 305 307 307 307 310 313 315 315
Height
5882 5883 5883 5883 5883 5884 5884 5884 5884 5883 5883 5883 5883 5883 5883 5883 5882 5882 5881 5880 5878 5877 5877 5876 5876 5876 5875 5875 5875 5874 5874 5873 5873 5872 5872 5872 5871 5871 5871 5871 5871 5871 5871 5871 5870 5870 5869 5869 5869 5868 5868 5868 5867 5867 5867 5867 5867 5867 5867 5867 5867 5867 5866 5866 5866 5865 5865 5865 5865 5865 5864 5864 5864 5863 5863 5863 5862 5862 5862 5861 5861 5861 5860 5860 5859
5882 5882 5882 5883 5883 5883 5883 5883 5883 5883 5883 5883 5883 5883 5883 5883 5882 5882 5881 5880 5878 5877 5877 5876 5876 5876 5875 5875 5875 5874 5874 5873 5873 5873 5872 5872 5871 5871 5871 5871 5872 5872 5872 5871 5871 5870 5870 5870 5869 5869 5868 5868 5868 5867 5867 5868 5868 5868 5868 5867 5867 5867 5867 5866 5866 5865 5865 5865 5865 5864 5864 5864 5864 5863 5863 5863 5862 5862 5862 5861 5861 5860 5860 5859 5859
5881 5881 5881 5882 5882 5882 5883 5883 5883 5883 5883 5883 5883 5883 5883 5882 5882 5881 5881 5880 5879 5878 5877 5876 5876 5875 5875 5875 5874 5874 5874 5873 5873 5873 5872 5872 5871 5871 5871 5871 5872 5872 5872 5871 5871 5870 5870 5870 5869 5869 5869 5868 5868 5868 5868 5868 5868 5868 5868 5867 5867 5867 5866 5866 5866 5865 5865 5865 5865 5865 5864 5864 5864 5863 5863 5863 5862 5862 5861 5861 5861 5860 5859 5859 5858
5880 5880 5881 5881 5881 5882 5882 5882 5882 5882 5882 5882 5882 5882 5882 5882 5882 5881 5881 5880 5879 5878 5877 5876 5876 5875 5875 5874 5874 5874 5874 5874 5873 5873 5872 5872 5871 5871 5871 5871 5872 5872 5872 5872 5871 5871 5870 5870 5870 5869 5869 5868 5868 5867 5868 5868 5868 5868 5868 5867 5867 5866 5866 5866 5866 5865 5865 5865 5864 5865 5864 5864 5864 5863 5863 5863 5862 5862 5861 5861 5860 5860 5859 5858 5858
5880 5880 5880 5880 5880 5881 5881 5881 5882 5882 5881 5882 5882 5882 5882 5882 5881 5881 5880 5880 5879 5878 5877 5876 5876 5875 5875 5874 5874 5874 5874 5873 5873 5873 5873 5872 5871 5871 5871 5871 5872 5872 5872 5872 5872 5871 5871 5870 5870 5869 5869 5868 5867 5867 5867 5868 5868 5868 5867 5867 5867 5866 5866 5866 5865 5865 5865 5864 5864 5864 5864 5864 5864 5863 5863 5862 5862 5862 5861 5860 5860 5859 5858 5858 5857
5879 5879 5879 5879 5880 5880 5880 5881 5881 5881 5881 5881 5881 5881 5881 5881 5881 5880 5880 5879 5879 5878 5877 5876 5876 5875 5875 5874 5874 5873 5873 5873 5873 5873 5873 5872 5871 5871 5870 5871 5871 5872 5872 5872 5872 5871 5871 5871 5870 5869 5869 5868 5868 5867 5867 5867 5868 5868 5867 5867 5866 5866 5866 5865 5865 5865 5865 5864 5864 5864 5864 5864 5863 5863 5862 5862 5862 5861 5861 5860 5859 5859 5858 5857 5857
5878 5878 5878 5879 5879 5879 5880 5880 5881 5881 5880 5880 5880 5881 5881 5881 5880 5880 5879 5879 5879 5878 5877 5876 5876 5875 5875 5874 5874 5874 5873 5873 5873 5873 5873 5872 5872 5871 5870 5870 5871 5872 5872 5872 5872 5872 5871 5871 5870 5869 5869 5868 5868 5867 5867 5867 5867 5867 5867 5867 5866 5866 5866 5865 5865 5864 5864 5863 5863 5864 5863 5863 5862 5862 5861 5861 5861 5861 5860 5859 5859 5858 5858 5857 5856
5876 5877 5877 5878 5878 5879 5879 5880 5880 5880 5880 5880 5880 5880 5880 5880 5880 5879 5879 5879 5879 5878 5877 5876 5875 5875 5875 5874 5874 5874 5873 5873 5873 5873 5873 5872 5872 5871 5870 5870 5871 5871 5872 5872 5872 5872 5871 5871 5870 5870 5869 5868 5868 5867 5867 5867 5867 5867 5867 5866 5866 5866 5865 5865 5864 5864 5863 5862 5862 5863 5863 5862 5861 5861 5861 5860 5860 5860 5859 5858 5858 5857 5857 5856 5855
5875 5876 5876 5877 5877 5878 5878 5879 5879 5879 5879 5879 5879 5880 5880 5880 5880 5879 5878 5878 5878 5878 5877 5876 5875 5875 5874 5874 5874 5874 5873 5873 5873 5873 5873 5872 5872 5871 5870 5870 5871 5871 5871 5872 5872 5871 5871 5871 5870 5870 5869 5868 5868 5868 5867 5867 5867 5867 5867 5866 5866 5865 5864 5864 5863 5863 5862 5861 5861 5861 5861 5861 5860 5860 5860 5859 5859 5858 5857 5857 5856 5856 5855 5854 5853
5874 5874 5875 5876 5876 5877 5877 5878 5878 5878 5878 5878 5878 5879 5879 5879 5879 5879 5878 5878 5878 5878 5877 5876 5875 5875 5874 5874 5874 5873 5873 5873 5873 5873 5872 5872 5872 5871 5871 5870 5870 5871 5871 5871 5871 5871 5871 5871 5870 5869 5869 5868 5868 5867 5867 5867 5867 5867 5867 5866 5865 5864 5863 5863 5862 5862 5862 5861 5860 5860 5860 5859 5859 5859 5858 5858 5858 5857 5856 5856 5855 5854 5853 5852 5851
5873 5873 5874 5875 5875 5876 5876 5877 5877 5877 5877 5877 5877 5877 5878 5879 5879 5878 5878 5877 5877 5877 5877 5876 5875 5875 5874 5874 5874 5873 5873 5873 5873 5873 5872 5872 5872 5871 5871 5870 5870 5870 5871 5871 5871 5871 5871 5870 5870 5869 5868 5868 5867 5867 5867 5867 5867 5866 5866 5865 5864 5863 5862 5862 5861 5861 5860 5860 5859 5859 5859 5859 5858 5858 5858 5857 5857 5856 5856 5855 5854 5854 5853 5852 5850
5872 5872 5873 5874 5874 5875 5875 5875 5876 5876 5877 5876 5876 5877 5877 5878 5878 5878 5877 5877 5877 5877 5876 5876 5875 5874 5874 5874 5873 5873 5873 5873 5873 5873 5873 5872 5872 5871 5871 5870 5870 5870 5870 5871 5871 5871 5870 5870 5869 5869 5868 5867 5867 5867 5867 5867 5867 5866 5865 5865 5864 5863 5862 5861 5861 5860 5859 5859 5859 5859 5858 5858 5858 5857 5857 5857 5856 5856 5855 5854 5853 5852 5851 5850 5849
5871 5871 5872 5872 5873 5873 5874 5874 5874 5875 5876 5876 5876 5876 5877 5877 5877 5877 5877 5877 5877 5877 5876 5876 5875 5874 5874 5873 5873 5873 5873 5873 5873 5873 5873 5872 5872 5871 5871 5870 5869 5869 5870 5870 5870 5870 5870 5869 5869 5868 5867 5867 5866 5867 5867 5867 5866 5865 5865 5864 5863 5862 5861 5861 5860 5859 5859 5858 5858 5858 5858 5857 5857 5857 5856 5856 5855 5855 5854 5853 5852 5851 5850 5849 5848
5870 5870 5871 5871 5872 5872 5872 5873 5873 5874 5875 5875 5875 5876 5876 5876 5877 5877 5877 5876 5877 5877 5876 5876 5875 5874 5873 5873 5873 5873 5873 5873 5873 5873 5872 5872 5872 5871 5871 5870 5869 5869 5869 5869 5870 5870 5869 5869 5868 5867 5867 5866 5866 5866 5866 5866 5865 5865 5864 5863 5862 5861 5861 5860 5860 5859 5858 5858 5857 5857 5857 5857 5857 5856 5856 5855 5854 5854 5853 5852 5851 5850 5849 5848 5847
5868 5868 5869 5870 5870 5870 5871 5871 5872 5872 5873 5874 5874 5875 5875 5875 5876 5876 5876 5876 5876 5877 5876 5876 5875 5874 5873 5873 5873 5873 5873 5872 5872 5872 5872 5872 5872 5871 5871 5870 5869 5869 5869 5869 5869 5869 5868 5868 5867 5867 5866 5866 5865 5865 5865 5865 5865 5864 5864 5863 5862 5861 5861 5859 5859 5860 5858 5857 5857 5857 5857 5856 5856 5856 5855 5854 5854 5853 5852 5851 5850 5849 5848 5847 5846
5866 5867 5867 5868 5868 5868 5869 5869 5870 5871 5872 5873 5873 5873 5874 5874 5875 5875 5876 5876 5876 5876 5876 5876 5875 5874 5874 5873 5873 5872 5872 5872 5872 5872 5872 5872 5872 5871 5870 5870 5869 5868 5868 5868 5868 5868 5867 5867 5866 5866 5865 5865 5865 5865 5865 5864 5864 5863 5863 5863 5862 5861 5860 5858 5858 5859 5858 5858 5857 5857 5856 5855 5855 5855 5854 5854 5853 5852 5851 5851 5849 5848 5848 5847 5846
5864 5865 5866 5866 5866 5866 5867 5867 5868 5869 5870 5871 5872 5872 5872 5873 5873 5874 5875 5875 5875 5875 5875 5875 5875 5875 5874 5873 5873 5873 5872 5872 5872 5872 5872 5871 5871 5871 5870 5869 5869 5868 5868 5867 5867 5867 5867 5866 5866 5865 5865 5864 5864 5864 5864 5864 5863 5863 5862 5862 5861 5860 5859 5858 5857 5858 5857 5857 5857 5856 5855 5855 5855 5854 5854 5853 5852 5851 5850 5849 5849 5848 5847 5846 5845
5862 5863 5864 5864 5864 5865 5865 5866 5867 5868 5869 5870 5871 5871 5871 5872 5872 5873 5874 5874 5874 5874 5874 5874 5874 5874 5874 5874 5873 5873 5872 5872 5872 5872 5871 5871 5871 5870 5870 5869 5869 5868 5867 5867 5866 5866 5866 5865 5865 5864 5864 5864 5863 5863 5863 5863 5863 5862 5862 5861 5860 5859 5858 5858 5857 5856 5856 5856 5856 5855 5855 5854 5854 5854 5853 5852 5851 5850 5849 5848 5848 5847 5846 5845 5844
5860 5861 5861 5862 5863 5863 5864 5865 5866 5867 5868 5868 5869 5870 5870 5870 5871 5872 5873 5873 5873 5873 5873 5873 5873 5873 5874 5874 5874 5873 5873 5872 5871 5871 5870 5870 5870 5870 5869 5869 5868 5867 5867 5866 5866 5865 5865 5865 5864 5864 5863 5863 5863 5863 5862 5862 5862 5861 5861 5860 5859 5859 5858 5857 5857 5856 5856 5856 5855 5855 5854 5854 5853 5853 5852 5851 5850 5849 5848 5848 5847 5846 5845 5845 5844
5858 5859 5859 5860 5861 5862 5863 5864 5865 5866 5867 5868 5868 5869 5869 5870 5871 5871 5872 5872 5872 5872 5872 5872 5872 5873 5873 5873 5874 5873 5872 5872 5871 5870 5870 5869 5869 5869 5869 5868 5867 5867 5866 5865 5865 5864 5864 5864 5863 5863 5863 5862 5862 5862 5862 5861 5861 5860 5859 5859 5859 5858 5857 5857 5856 5856 5856 5855 5854 5853 5853 5852 5852 5851 5851 5850 5850 5849 5848 5847 5846 5845 5844 5844 5843
5856 5857 5857 5858 5859 5860 5861 5863 5864 5865 5865 5867 5867 5868 5869 5869 5870 5870 5871 5871 5871 5871 5871 5871 5871 5871 5872 5873 5873 5873 5872 5872 5871 5869 5869 5869 5869 5869 5868 5867 5866 5866 5865 5865 5864 5864 5863 5863 5863 5862 5862 5861 5861 5861 5861 5861 5860 5859 5859 5858 5858 5857 5856 5856 5856 5855 5854 5853 5853 5853 5852 5851 5851 5850 5850 5849 5849 5848 5847 5846 5845 5845 5844 5843 5842
5854 5855 5856 5856 5857 5859 5860 5862 5863 5864 5864 5866 5867 5867 5868 5869 5869 5870 5870 5870 5870 5870 5870 5870 5870 5871 5871 5872 5872 5873 5872 5871 5870 5869 5868 5868 5868 5868 5867 5866 5866 5865 5864 5864 5863 5863 5862 5862 5862 5861 5860 5860 5860 5860 5860 5859 5859 5858 5858 5857 5857 5856 5855 5855 5855 5854 5853 5852 5852 5851 5851 5850 5850 5849 5849 5848 5848 5847 5846 5845 5844 5844 5843 5842 5841
5852 5853 5854 5855 5856 5857 5859 5860 5861 5862 5863 5864 5865 5867 5867 5868 5868 5868 5869 5869 5869 5869 5869 5869 5869 5870 5871 5872 5872 5872 5872 5871 5869 5868 5867 5867 5867 5867 5866 5866 5865 5864 5864 5863 5862 5862 5861 5861 5860 5860 5859 5859 5859 5859 5859 5858 5858 5858 5857 5857 5856 5855 5854 5854 5853 5853 5852 5851 5851 5850 5850 5849 5849 5848 5848 5847 5847 5846 5845 5844 5844 5843 5842 5841 5840
5849 5851 5852 5853 5855 5856 5857 5859 5860 5860 5862 5862 5864 5866 5866 5867 5867 5867 5868 5868 5868 5868 5868 5868 5868 5869 5870 5871 5872 5872 5871 5870 5868 5867 5867 5867 5866 5866 5866 5865 5864 5864 5863 5862 5861 5861 5860 5860 5859 5859 5858 5858 5858 5858 5858 5857 5857 5857 5857 5856 5855 5854 5854 5853 5852 5851 5851 5851 5850 5849 5849 5848 5848 5848 5847 5846 5845 5845 5844 5843 5843 5842 5841 5840 5838
5847 5849 5850 5851 5853 5854 5855 5856 5857 5858 5860 5861 5862 5864 5865 5865 5866 5866 5866 5867 5867 5866 5867 5867 5868 5868 5869 5870 5871 5871 5870 5869 5867 5866 5866 5866 5866 5865 5865 5864 5864 5863 5862 5861 5861 5860 5859 5858 5858 5858 5857 5856 5856 5857 5857 5856 5856 5855 5855 5855 5854 5853 5853 5852 5851 5850 5851 5850 5849 5848 5848 5848 5847 5847 5846 5845 5844 5843 5843 5842 5841 5840 5839 5838 5837
5845 5847 5848 5849 5850 5852 5853 5854 5855 5856 5858 5859 5860 5862 5863 5864 5864 5865 5865 5865 5865 5865 5866 5867 5867 5868 5868 5869 5870 5870 5869 5868 5866 5866 5865 5865 5865 5864 5864 5863 5863 5862 5861 5860 5860 5859 5858 5857 5857 5856 5856 5855 5855 5856 5856 5855 5855 5854 5854 5854 5853 5853 5853 5851 5851 5850 5850 5849 5848 5847 5847 5847 5846 5846 5845 5844 5843 5842 5842 5841 5840 5839 5838 5837 5836
5843 5845 5846 5848 5849 5850 5851 5852 5854 5855 5856 5858 5859 5860 5861 5862 5863 5863 5863 5863 5863 5864 5865 5866 5867 5867 5868 5868 5868 5868 5867 5867 5866 5865 5865 5864 5864 5863 5863 5862 5862 5861 5860 5859 5859 5858 5857 5856 5856 5855 5855 5854 5854 5855 5855 5854 5853 5853 5853 5852 5852 5852 5852 5851 5851 5850 5849 5848 5847 5847 5846 5846 5845 5844 5843 5842 5841 5841 5840 5840 5839 5838 5837 5836 5835
5840 5843 5845 5846 5847 5849 5850 5851 5852 5854 5855 5857 5858 5858 5859 5861 5861 5862 5862 5862 5862 5863 5864 5865 5866 5866 5867 5868 5867 5867 5866 5865 5865 5864 5864 5863 5863 5862 5862 5861 5861 5860 5859 5858 5857 5857 5856 5855 5855 5854 5854 5853 5853 5854 5853 5852 5852 5852 5851 5851 5850 5850 5850 5851 5850 5848 5847 5846 5846 5845 5845 5844 5844 5843 5842 5841 5840 5839 5839 5838 5838 5836 5835 5834 5833
5838 5841 5843 5844 5846 5847 5848 5850 5851 5853 5854 5856 5857 5857 5858 5859 5860 5861 5861 5861 5861 5862 5863 5864 5865 5865 5866 5867 5866 5866 5865 5864 5864 5863 5863 5862 5862 5861 5860 5860 5860 5859 5858 5857 5856 5855 5855 5854 5854 5854 5853 5853 5853 5853 5852 5851 5851 5851 5851 5850 5850 5849 5849 5849 5848 5846 5846 5846 5845 5845 5844 5843 5842 5841 5840 5839 5839 5838 5838 5837 5836 5835 5834 5833 5832
5836 5839 5841 5842 5844 5846 5847 5848 5850 5851 5853 5854 5855 5856 5857 5858 5858 5859 5859 5859 5860 5861 5861 5862 5863 5864 5865 5866 5865 5865 5864 5863 5863 5863 5862 5861 5861 5860 5859 5859 5858 5858 5857 5856 5855 5854 5854 5854 5854 5854 5853 5853 5852 5852 5852 5852 5851 5850 5850 5849 5849 5848 5848 5848 5846 5845 5845 5844 5844 5843 5842 5841 5840 5839 5838 5838 5837 5837 5836 5836 5835 5834 5833 5832 5831
5833 5837 5839 5840 5842 5844 5845 5847 5848 5849 5851 5852 5853 5854 5855 5856 5857 5857 5858 5858 5858 5859 5860 5861 5862 5863 5864 5865 5864 5864 5863 5862 5862 5862 5861 5861 5860 5859 5858 5858 5857 5856 5855 5854 5854 5853 5853 5853 5853 5853 5852 5852 5852 5851 5851 5851 5850 5849 5849 5848 5847 5847 5846 5847 5846 5844 5843 5843 5842 5841 5840 5839 5839 5838 5837 5836 5836 5835 5835 5834 5834 5833 5832 5831 5829
5831 5835 5837 5838 5839 5842 5843 5845 5846 5847 5849 5851 5852 5852 5853 5854 5855 5856 5856 5856 5857 5858 5858 5859 5860 5862 5863 5863 5863 5862 5861 5861 5861 5861 5861 5860 5859 5858 5857 5857 5856 5855 5854 5853 5852 5852 5852 5852 5852 5852 5851 5851 5851 5850 5850 5849 5849 5848 5848 5847 5846 5846 5845 5845 5845 5843 5842 5842 5841 5840 5839 5838 5837 5836 5835 5835 5834 5834 5834 5833 5832 5831 5830 5829 5828
5829 5832 5834 5836 5837 5839 5841 5842 5844 5846 5847 5848 5850 5850 5851 5853 5853 5854 5855 5855 5856 5856 5857 5858 5859 5860 5861 5862 5862 5861 5860 5860 5860 5860 5860 5859 5858 5857 5856 5856 5855 5854 5852 5851 5851 5851 5852 5852 5851 5851 5850 5850 5850 5849 5849 5848 5847 5847 5847 5846 5845 5845 5844 5844 5844 5843 5842 5841 5839 5839 5838 5837 5836 5835 5834 5834 5833 5833 5833 5832 5831 5830 5829 5828 5827
5826 5828 5830 5833 5835 5837 5838 5840 5842 5843 5844 5846 5848 5849 5850 5851 5852 5852 5853 5853 5854 5855 5856 5857 5858 5859 5860 5860 5860 5860 5859 5859 5859 5859 5859 5858 5857 5856 5855 5854 5853 5852 5851 5850 5850 5851 5852 5851 5849 5850 5850 5849 5849 5849 5848 5847 5846 5846 5846 5846 5845 5844 5844 5843 5842 5841 5841 5840 5838 5838 5837 5836 5835 5834 5833 5833 5832 5832 5831 5831 5830 5829 5828 5827 5826
5822 5825 5827 5829 5831 5833 5835 5837 5839 5840 5842 5843 5845 5847 5848 5849 5850 5851 5852 5852 5852 5854 5855 5856 5856 5857 5858 5859 5859 5858 5858 5858 5858 5858 5858 5857 5856 5855 5854 5853 5852 5851 5850 5849 5849 5851 5851 5849 5848 5849 5849 5849 5848 5848 5847 5847 5846 5845 5845 5845 5844 5843 5843 5842 5841 5839 5839 5839 5838 5837 5836 5835 5834 5833 5832 5832 5831 5831 5830 5829 5828 5827 5826 5825 5824
5818 5820 5824 5825 5827 5830 5832 5834 5835 5837 5839 5841 5842 5844 5845 5846 5848 5849 5850 5850 5851 5852 5853 5854 5855 5856 5856 5857 5857 5857 5857 5857 5857 5857 5857 5856 5855 5854 5853 5853 5851 5850 5848 5847 5849 5851 5850 5848 5847 5848 5848 5848 5847 5847 5846 5846 5846 5844 5843 5843 5842 5841 5841 5841 5840 5839 5837 5837 5837 5836 5835 5834 5833 5832 5831 5831 5830 5829 5829 5828 5827 5826 5825 5824 5822
5816 5816 5818 5822 5824 5826 5829 5831 5832 5834 5836 5838 5840 5841 5843 5844 5846 5847 5848 5849 5849 5851 5852 5853 5854 5854 5855 5856 5856 5856 5856 5856 5856 5856 5856 5855 5854 5853 5852 5852 5850 5849 5846 5844 5847 5850 5849 5847 5847 5847 5847 5847 5846 5846 5845 5845 5844 5843 5842 5841 5840 5840 5840 5840 5839 5837 5836 5835 5835 5834 5833 5832 5831 5830 5830 5829 5829 5828 5827 5826 5825 5824 5823 5822 5821
5814 5813 5813 5816 5820 5823 5825 5827 5829 5831 5833 5835 5837 5839 5840 5842 5844 5846 5847 5847 5848 5849 5851 5851 5852 5853 5853 5854 5854 5854 5854 5855 5855 5855 5855 5854 5853 5852 5851 5851 5849 5847 5844 5842 5843 5848 5848 5847 5846 5845 5845 5845 5845 5844 5844 5843 5842 5841 5840 5839 5839 5839 5839 5838 5837 5836 5834 5833 5832 5832 5832 5831 5831 5830 5828 5828 5827 5827 5826 5825 5824 5823 5822 5820 5819
5812 5813 5811 5811 5815 5819 5821 5823 5825 5827 5830 5833 5835 5837 5838 5840 5842 5844 5845 5846 5846 5847 5849 5850 5850 5851 5852 5853 5853 5853 5853 5853 5854 5854 5853 5853 5853 5852 5850 5850 5849 5846 5844 5840 5840 5844 5846 5846 5845 5844 5843 5843 5843 5843 5842 5841 5840 5839 5839 5838 5838 5838 5838 5837 5835 5834 5832 5831 5831 5830 5830 5830 5829 5828 5827 5826 5826 5825 5824 5823 5822 5821 5820 5819 5818
5808 5811 5812 5810 5811 5815 5818 5820 5822 5824 5827 5830 5833 5835 5836 5837 5839 5842 5843 5844 5845 5845 5846 5847 5849 5849 5850 5851 5851 5852 5852 5852 5852 5852 5852 5852 5851 5851 5849 5849 5848 5846 5844 5841 5839 5842 5844 5844 5843 5842 5841 5841 5841 5841 5840 5839 5838 5838 5837 5837 5837 5836 5836 5835 5834 5832 5830 5830 5829 5829 5828 5828 5827 5826 5826 5825 5824 5823 5823 5822 5820 5819 5818 5817 5816
5802 5806 5810 5810 5808 5811 5814 5817 5819 5821 5824 5827 5830 5833 5834 5835 5837 5839 5840 5841 5842 5843 5844 5845 5846 5847 5848 5849 5850 5850 5850 5851 5851 5851 5850 5850 5850 5850 5848 5847 5847 5845 5843 5841 5839 5840 5843 5843 5842 5841 5840 5839 5840 5839 5839 5838 5837 5837 5836 5835 5835 5834 5834 5833 5831 5830 5829 5828 5828 5827 5827 5826 5825 5824 5824 5823 5823 5822 5821 5820 5819 5817 5816 5815 5814
5797 5801 5806 5809 5808 5808 5810 5813 5816 5818 5821 5824 5828 5830 5832 5833 5834 5836 5837 5838 5839 5841 5842 5843 5844 5845 5846 5847 5848 5848 5849 5849 5849 5849 5849 5848 5848 5848 5847 5846 5845 5844 5843 5841 5838 5838 5841 5842 5840 5839 5839 5838 5838 5838 5837 5836 5836 5835 5834 5833 5833 5833 5832 5831 5829 5828 5827 5827 5827 5826 5825 5824 5823 5822 5822 5821 5821 5820 5819 5818 5817 5816 5815 5813 5812
5792 5797 5802 5805 5805 5805 5807 5810 5813 5816 5818 5821 5825 5827 5829 5830 5831 5833 5834 5836 5837 5839 5840 5841 5842 5843 5844 5845 5846 5846 5847 5847 5847 5847 5847 5847 5846 5846 5846 5845 5844 5843 5842 5840 5838 5837 5838 5839 5838 5838 5838 5837 5837 5837 5836 5835 5834 5834 5833 5832 5831 5831 5830 5829 5828 5827 5826 5826 5825 5825 5824 5823 5821 5820 5820 5819 5818 5818 5817 5816 5815 5815 5814 5812 5810
5787 5792 5797 5799 5801 5803 5805 5807 5810 5814 5815 5818 5821 5823 5825 5826 5827 5830 5832 5833 5835 5836 5838 5839 5840 5841 5841 5842 5843 5844 5845 5846 5846 5846 5846 5845 5845 5844 5844 5843 5842 5842 5841 5839 5837 5835 5835 5837 5837 5836 5837 5836 5836 5836 5835 5834 5833 5833 5831 5831 5830 5829 5828 5826 5826 5825 5824 5824 5824 5823 5822 5821 5820 5819 5818 5817 5816 5816 5815 5814 5813 5812 5811 5810 5809
5784 5788 5792 5795 5798 5801 5802 5804 5807 5810 5813 5814 5817 5819 5820 5822 5824 5826 5829 5831 5832 5834 5836 5837 5838 5839 5839 5840 5841 5842 5843 5844 5844 5844 5844 5844 5843 5842 5842 5841 5840 5840 5839 5837 5836 5834 5833 5834 5836 5835 5835 5834 5834 5834 5833 5832 5832 5831 5830 5829 5828 5827 5826 5824 5824 5824 5823 5823 5822 5821 5820 5819 5819 5817 5816 5815 5814 5813 5813 5812 5811 5810 5809 5807 5806
5781 5785 5789 5792 5796 5798 5799 5801 5804 5807 5809 5811 5813 5815 5817 5819 5821 5823 5826 5828 5829 5831 5833 5834 5835 5836 5837 5838 5839 5840 5841 5842 5842 5842 5842 5842 5842 5841 5840 5840 5839 5838 5837 5836 5835 5833 5831 5831 5833 5833 5832 5831 5831 5832 5832 5831 5830 5830 5829 5828 5827 5825 5824 5823 5823 5822 5822 5821 5820 5820 5819 5818 5817 5816 5814 5813 5812 5811 5810 5811 5810 5808 5806 5805 5804
5777 5782 5785 5788 5792 5795 5795 5796 5799 5802 5805 5807 5809 5811 5813 5816 5818 5820 5822 5824 5827 5828 5829 5831 5832 5834 5835 5836 5837 5838 5839 5839 5840 5840 5841 5841 5840 5840 5839 5838 5837 5836 5835 5835 5833 5831 5830 5828 5829 5830 5830 5829 5829 5830 5831 5830 5829 5827 5826 5825 5824 5823 5822 5822 5821 5820 5820 5819 5819 5818 5817 5816 5815 5814 5813 5812 5811 5810 5809 5808 5809 5808 5805 5802 5801
5774 5777 5781 5783 5787 5790 5791 5792 5795 5797 5799 5802 5804 5806 5809 5812 5814 5816 5819 5821 5824 5826 5827 5829 5830 5831 5832 5833 5834 5836 5836 5837 5838 5838 5838 5839 5839 5838 5837 5836 5835 5835 5834 5834 5832 5830 5829 5828 5827 5827 5828 5827 5828 5829 5830 5828 5826 5825 5824 5823 5822 5821 5821 5820 5820 5819 5818 5818 5817 5816 5815 5814 5813 5811 5810 5810 5810 5809 5808 5806 5806 5806 5805 5801 5798
5769 5773 5776 5780 5783 5786 5788 5790 5791 5791 5794 5798 5800 5802 5805 5808 5810 5812 5815 5818 5821 5823 5825 5826 5828 5829 5830 5831 5832 5833 5834 5835 5836 5836 5836 5837 5837 5836 5835 5834 5834 5833 5833 5833 5831 5830 5828 5828 5827 5827 5826 5825 5825 5826 5826 5825 5824 5824 5823 5822 5820 5820 5819 5819 5818 5817 5816 5816 5815 5814 5813 5812 5811 5809 5808 5807 5807 5807 5806 5804 5802 5803 5804 5801 5797
5765 5769 5772 5775 5778 5780 5782 5786 5787 5785 5788 5793 5796 5798 5801 5803 5807 5809 5812 5815 5818 5820 5822 5823 5825 5826 5827 5828 5829 5830 5832 5833 5833 5834 5834 5834 5835 5834 5833 5833 5832 5832 5832 5832 5830 5829 5827 5826 5826 5826 5825 5823 5822 5822 5822 5822 5822 5822 5822 5820 5819 5818 5817 5817 5816 5815 5815 5813 5813 5812 5812 5810 5809 5808 5806 5805 5804 5805 5805 5803 5800 5798 5799 5799 5796
5759 5763 5766 5769 5772 5775 5778 5782 5783 5781 5783 5789 5792 5794 5797 5800 5803 5806 5808 5811 5814 5817 5818 5820 5822 5823 5824 5826 5827 5828 5829 5830 5831 5831 5832 5832 5832 5832 5831 5831 5830 5830 5831 5830 5829 5828 5826 5825 5824 5824 5823 5822 5821 5821 5820 5819 5820 5821 5820 5818 5817 5816 5815 5815 5815 5814 5813 5811 5810 5810 5810 5810 5808 5807 5806 5804 5801 5801 5802 5802 5799 5796 5794 5795 5794